Location: ?
(35.4554°N, 139.3092°E)
Time: 21:59:42
(UTC+00:00)

DELTA 2 R/B (1) - Pass Details

Date: 21 April 2021
Orbit: 790 x 803 km, 39.6° (Epoch: 10 May)

Event Time Altitude Azimuth Distance (km) Brightness Sun altitude
Exits shadow 19:10:57 - 289° (WNW) 2,826 6.0 -10.6°
Reaches altitude 10° 19:12:13 10° 289° (WNW) 2,352 5.6 -10.4°
Maximum altitude 19:17:46 90° 211° (SSW) 795 3.6 -9.3°
Drops below altitude 10° 19:23:21 10° 111° (ESE) 2,355 6.8 -8.3°
Sets 19:25:50 0° 112° (ESE) 3,286 7.6 -7.8°
